COSMOS 2251 DEB, 37546

Orbit data source: Space-Track

COSMOS 2251 DEB, 37546 is space debris in LEO originally from a launch on Wed, 16 Jun 1993 UTC launched from the Plesetsk Missile And Space Complex (PKMTR). The debris from Iridium 33, an American commercial communications satellite, has been tracked extensively since its accidental collision with the defunct Russian satellite Cosmos 2251 in 2009. This event, occurring at high speed in low Earth orbit (LEO), generated thousands of pieces of space debris, significantly increasing the risk of further collisions. The Iridium 33 debris cloud has impacted space traffic management and orbital debris mitigation strategies, making it a subject of ongoing study in space situational awareness.

Loading next visibility...
Identifier
37546, 1993-036BPB
Orbit
LEO
Country
Flag of CISCIS
Related business
Manufacturer
Unknown
Mission
Spacecraft
Bus & Motor
Unknown
Mass
Unknown
Launch date (UTC)
1993-06-16 (33 years ago)
Launch vehicle
Unknown
Launch site
Plesetsk Missile And Space Complex (PKMTR)
Object type
Payload
Rocket body
Debris
Shape & HBR
Unknown shape, 0.1 m
Radar Cross Section
Small (<0.1 m²)

Expand to show TLE details & history
Last TLE update: 20 hours ago

TLE from 20 hours ago
0 COSMOS 2251 DEB
1 37546U 93036BPB 25352.24776723  .00016258  00000-0  21106-2 0  9995
2 37546  74.0228  87.1348 0005339  89.0723 271.1065 14.80729839659698
Epoch: 2025-12-18T05:56Z
TLE epoch observation values (Epoch: 2025-12-18T05:56:47.088Z)
Latitude
-0.00006°
Longitude
-89.16742°
Altitude
629.615 km
Speed
7.544 km/s
True Right ascension
05h 48m 32s
True Declination
0° 00' 00"
Sunlit
Object was in full shadow at epoch
Visualization orbit readout
Latitude
Unknown
Longitude
Unknown
Altitude
Unknown
Speed
Unknown
Apparent Right ascension
Unknown
Apparent Declination
Unknown
Sunlit
N/A
Visualization observer readout
Local Sidereal Time
00:33:42
Azimuth
Unknown
Elevation
Unknown
Doppler factor
Unknown
Orbital elements
Apogee altitude
628.336 km
Perigee altitude
620.858 km
Semi-major axis
7,002.734 km
Eccentricity
0.00053
Inclination
74.0228°
RAAN
87.1348°
Arg. of periapsis
89.0723°
True anomaly
271.04533°
Mean anomaly
271.1065°
Eccentric anomaly
271.07592°
Mean motion
3.70375 °/min
Orbital period
97.2 mins
BSTAR
0.0021106
Loading maneuver chart data...
Computing Atmospheric mass density...
Loading historical data...
Loading historical data...
Loading historical data...
Loading historical data...
Loading historical data...
Loading historical data...
Loading historical data...

Documentation

Showing up to 5 results
|